Home > Weather > Georgetown > Past weeks

Flag for Guyana Past Weather in Georgetown, Guyana — Yesterday and Last 2 Weeks

Now
75 °F

Passing clouds.


Feels Like: 73 °F
Forecast: 79 / 85 °F
Wind: No wind

Location: Georgetown/Cheddi Jagan International Airport

Current Time: May 25, 2016 at 5:21:46 AM

Latest Report: May 25, 2016 at 5:00 AM


Visibility: 6 mi

Pressure: 29.92 "Hg

Humidity: 100%

Dew Point: 75 °F

Location of GeorgetownLocation

Past Weather in Georgetown — Graph

°F

Georgetown Temperature Yesterday

Maximum temperature yesterday: 81 °F (at 7:00 AM)
Minimum temperature yesterday: 75 °F (at 12:00 AM)
Average temperature yesterday: 77 °F

High & Low Weather Summary for the Past Weeks

 TemperatureHumidityPressure
High91 °F (May 13, 3:00 PM)100% (May 10, 3:00 AM)30.01 "Hg (May 10, 3:00 AM)
Low73 °F (May 22, 5:00 AM)59% (May 22, 1:00 PM)29.83 "Hg (May 10, 4:00 PM)
Average80 °F89%29.93 "Hg
* Reported May 10 3:00 AM — May 25 2:00 AM, Georgetown, Weather by CustomWeather, © 2016

Note: Actual official high and low records may vary slightly from our data, if they occured in-between our weather recording intervals... More about our weather records

Advertising

Georgetown Weather History for the Previous 24 Hours

Scroll right to see more
 ConditionsComfort  
Time TempWeatherWind HumidityBarometerVisibility
2:00 AM
Wed, May 25
75 °FPassing clouds.No wind100%29.95 "Hg6 mi
1:00 AM75 °FPassing clouds.5 mph100%29.95 "Hg6 mi
12:00 AM75 °FSprinkles. Passing clouds.No wind100%29.98 "Hg6 mi
11:00 PM
Tue, May 24
75 °FPassing clouds.5 mph100%29.98 "HgN/A
10:00 PM75 °FSprinkles. Passing clouds.No wind100%30.01 "HgN/A
9:00 PM75 °FSprinkles. Passing clouds.No wind100%29.98 "HgN/A
8:00 PM75 °FPassing clouds.No wind100%29.98 "HgN/A
7:00 PM77 °FPassing clouds.2 mph94%29.95 "HgN/A
6:00 PM77 °FLight rain. Partly sunny.14 mph94%29.95 "Hg6 mi
5:00 PM79 °FRain. Partly sunny.16 mph94%29.95 "Hg3 mi
4:00 PM77 °FRain. Partly sunny.10 mph94%29.95 "Hg4 mi
3:00 PM77 °FRain showers. Partly sunny.12 mph94%29.95 "Hg1 mi
2:00 PM79 °FPartly sunny.5 mph94%29.95 "HgN/A
1:00 PM79 °FPartly sunny.7 mph89%29.98 "HgN/A
12:00 PM77 °FRain. Mostly cloudy.9 mph94%30.01 "Hg4 mi
11:00 AM77 °FHeavy rain. Mostly cloudy.12 mph94%30.01 "Hg1 mi
10:30 AM77 °FHeavy rain. Mostly cloudy.9 mph94%30.01 "Hg1 mi
10:00 AM81 °FRain. Partly sunny.5 mph89%30.01 "Hg4 mi
9:00 AM77 °FRain showers. Partly sunny.2 mph94%30.01 "Hg3 mi
8:00 AM77 °FPartly sunny.5 mph94%30.01 "Hg6 mi
7:36 AM79 °FLots of rain. Partly sunny.16 mph89%30.01 "Hg2 mi
7:00 AM81 °FBroken clouds.5 mph89%29.98 "HgN/A
Weather by CustomWeather, © 2016

See weather overviewHow to use our weather pages